Location: Cape Windsor Mobile Home Park
(38.4537°N, 75.0732°W)
Time: 00:19:11
(UTC+00:00)

Daily predictions for brighter satellites

Satellite Brightness Start Highest point End
(mag) Time Altitude Azimuth Time Altitude Azimuth Time Altitude Azimuth
CZ-2C R/B 3.6 00:00:26 10° SE 00:04:54 35° ENE 00:09:14 10° N
Cosmos 1544 Rocket 4.4 00:00:48 10° SSW 00:05:08 57° W 00:09:31 10° N
Cosmos 1726 3.2 00:02:53 10° SSE 00:05:59 25° E 00:09:07 10° NE
Cosmos 1302 Rocket 4.1 00:01:05 10° NNW 00:06:22 83° WSW 00:11:40 10° SSE
STARLINK-1130 (DARKSAT) 3.9 00:04:06 10° NW 00:08:10 53° NE 00:11:49 12° ESE
Cosmos 1758 3.4 00:06:41 10° S 00:10:46 86° W 00:14:52 10° N
Aureole 2 Rocket 3.0 00:09:46 10° N 00:13:01 37° ENE 00:15:53 12° SE
STARLINK-1084 3.8 00:09:05 10° NW 00:13:11 58° NE 00:16:37 14° ESE
SL-16 R/B 4.1 00:08:30 10° SW 00:13:37 34° WNW 00:18:44 10° N
SEDSat Delta rocket 4.1 00:09:14 10° WSW 00:13:54 36° S 00:17:25 14° ESE
Cosmos 2315 Rocket 4.2 00:08:06 10° S 00:14:24 84° W 00:20:49 10° N
ARGOS Delta rocket 4.1 00:11:58 10° SSE 00:17:08 74° ENE 00:22:32 10° N
STARLINK-1098 3.7 00:14:03 10° NW 00:18:10 64° NE 00:21:25 16° ESE
H-2A R/B 2.2 00:14:11 10° SSE 00:19:19 56° ENE 00:24:21 10° N
H-2A R/B 3.7 00:05:32 10° W 00:19:24 29° SW 00:23:08 10° SSE
CZ-2C R/B 4.5 00:15:24 10° NE 00:19:34 31° E 00:23:40 10° SSE
SL-4 R/B 1.4 00:18:39 10° SW 00:22:02 70° SE 00:25:26 10° NE
CZ-4 R/B 4.1 00:19:37 10° SW 00:22:32 21° W 00:25:29 10° NW
STARLINK-1123 3.6 00:19:01 10° NW 00:23:09 71° NE 00:26:12 18° ESE
CZ-2C R/B 3.6 00:19:43 10° NE 00:23:44 22° E 00:27:43 10° SE
ARGOS 3.3 00:20:12 10° SSE 00:25:26 54° ENE 00:30:40 10° N
Cosmos 1709 Rocket 4.3 00:21:51 10° NNW 00:27:57 68° W 00:34:00 10° S
STARLINK-1097 3.6 00:23:59 10° NW 00:28:08 78° NE 00:30:58 19° SE
Cosmos 1758 Rocket 4.1 00:24:48 10° N 00:28:51 37° ENE 00:31:53 16° SE
SL-08 RB Rocket 4.1 00:28:43 14° SE 00:32:15 41° ENE 00:36:33 10° N
ISS -3.5 00:29:17 10° NW 00:32:37 57° NE 00:34:14 26° ESE
STARLINK-1099 3.5 00:28:57 10° NW 00:33:07 86° NE 00:35:46 21° SE
STARLINK-60 3.5 00:30:17 10° SSW 00:33:21 38° SE 00:34:47 24° E
MOS 1 4.3 00:28:15 10° SSE 00:33:49 68° ENE 00:39:26 10° N
Cosmos 2251 Rocket 3.9 00:29:26 10° SSW 00:34:46 69° WNW 00:40:09 10° NNE
Cosmos 1606 Rocket 3.9 00:30:41 10° SSE 00:34:49 41° E 00:39:00 10° NNE
Cosmos 2084 Rocket 3.6 00:30:34 10° NW 00:35:03 79° WSW 00:38:46 15° SSE
Cosmos 2228 3.4 00:31:45 10° SSE 00:35:42 39° E 00:39:43 10° NNE
Cosmos 1603 3.8 00:30:19 10° SSW 00:35:57 81° WNW 00:41:36 10° NNE
Meteor 2-10 4.1 00:32:16 10° S 00:37:35 72° E 00:43:09 10° NNE
STARLINK-1104 3.6 00:33:56 10° NW 00:38:05 86° SW 00:40:33 24° SE
Cosmos 1626 4.5 00:37:03 10° NNW 00:40:09 26° W 00:43:15 10° SSW
Meteor 1-21 Rocket 4.1 00:35:26 10° N 00:40:59 80° E 00:46:32 10° SSE
STARLINK-1144 3.6 00:38:55 10° NW 00:43:04 78° SW 00:45:20 26° SE
Cosmos 1703 4.1 00:39:40 10° NNE 00:43:13 30° ENE 00:43:55 28° E
Cosmos 2074 Rocket 4.0 00:37:24 10° N 00:43:38 62° E 00:49:50 10° SSE
Meteor 1-16 Rocket 4.0 00:39:07 10° S 00:44:25 69° E 00:49:53 10° NNE
ATLAS 5 CENTAUR R/B 4.2 00:39:37 10° SSW 00:44:29 20° SE 00:47:51 18° SE
Cosmos 1953 2.9 00:43:18 10° SSW 00:47:12 59° W 00:51:08 10° N
DMSP B5D2-2 4.3 00:42:50 10° NNE 00:47:51 46° E 00:52:51 10° S
STARLINK-1103 3.7 00:43:53 10° NW 00:48:01 71° SW 00:50:06 28° SE
USA 186 2.1 00:45:45 11° S 00:49:01 68° W 00:52:18 10° NNW
MONITOR-E 4.2 00:49:48 26° S 00:51:03 60° W 00:53:40 10° NNW
STARLINK-1101 3.9 00:48:54 10° NW 00:53:00 63° SW 00:54:54 30° SSE
IRIDIUM 104 4.4 00:51:22 10° N 00:56:37 82° W 01:01:49 10° S
Ariane Rocket 3.7 00:51:57 10° S 00:56:53 53° W 01:01:51 10° NNW
STARLINK-1102 4.0 00:53:53 10° NW 00:57:57 57° SW 00:59:40 31° SSE
ATLAS 5 CENTAUR R/B 2.7 00:54:36 10° S 01:04:00 - NE 00:56:26 23° SSE
Cosmos 1908 3.1 00:57:37 28° SSE 00:59:29 61° E 01:03:18 10° NNE
COSMOS 2455 4.4 00:56:03 10° N 01:00:18 19° NE 01:01:56 18° ENE
FREGAT/IRIS 4.1 01:00:06 16° SSW 01:01:49 32° W 01:04:19 10° NNW
STARLINK-1111 4.2 00:58:53 10° WNW 01:02:54 51° SW 01:04:27 32° S
Cosmos 1190 Rocket 4.2 00:59:57 10° S 01:05:03 48° ESE 01:10:08 10° NNE
Resurs 1-3 3.7 01:04:22 42° SE 01:05:29 56° ENE 01:09:48 10° N
STARLINK-1073 4.4 01:03:55 10° WNW 01:07:53 46° SW 01:09:15 33° S
SL-24 R/B - RUBIN 2 4.1 01:03:53 10° SSW 01:09:07 61° ESE 01:15:06 10° NE
Cosmos 1140 Rocket 3.7 01:07:41 34° SSE 01:09:21 45° ESE 01:14:17 10° NNE
MOS 1 Rocket 3.5 01:07:38 10° NNE 01:13:01 72° E 01:18:26 10° S
Cosmos 2369 Rocket 2.7 01:09:03 10° NNW 01:14:37 58° WSW 01:18:36 19° S
Cosmos 1943 Rocket 3.3 01:10:26 10° NW 01:15:36 41° WSW 01:20:44 10° S
BREEZE-M DEB (TANK) 4.4 01:11:08 10° SSW 01:16:43 36° S 01:16:43 36° S
Cosmos 2327 Rocket 4.4 01:14:31 10° N 01:20:53 84° E 01:24:41 26° S
SPOT 3 Rocket 3.6 01:18:32 28° S 01:21:22 79° WSW 01:26:37 10° NNW
BREEZE M DEB (TANK) 4.3 01:15:52 10° WSW 01:27:17 61° NW 01:29:38 24° NE
Cosmos 614 Rocket 4.2 01:22:53 10° SSW 01:28:05 70° WNW 01:33:18 10° NNE
Cosmos 2058 Rocket 3.0 01:27:42 63° S 01:28:24 85° E 01:32:56 10° N
Resurs 01 Rocket 1.5 01:28:33 70° ENE 01:28:33 70° ENE 01:32:52 10° N
Cosmos 2341 Rocket 4.2 01:25:32 10° N 01:31:44 50° E 01:32:25 48° E
USA 234 3.2 01:25:20 10° NE 01:31:55 85° NW 01:38:27 10° SW
Meteor 1-11 4.1 01:26:35 10° N 01:32:22 83° E 01:33:56 50° SSE
ATLAS 2AS CENTAUR R/B 2.9 01:26:13 10° NNW 01:33:40 61° NE 01:35:26 48° ESE
Cosmos 407 Rocket 3.6 01:30:24 10° SSW 01:35:32 72° WNW 01:40:41 10° NNE
MetOp-B 4.3 01:40:15 55° ENE 01:40:15 55° ENE 01:45:18 10° N
SL-8 R/B 4.1 01:47:15 10° WNW 01:51:23 58° WSW 01:51:23 58° WSW
Cosmos 2181 Rocket 3.9 01:59:49 71° ENE 01:59:49 71° ENE 02:05:40 10° N
SL-4 R/B 4.3 01:59:25 10° WNW 02:01:32 18° NNW 02:01:32 18° NNW
Cosmos 1340 Rocket 4.3 02:02:26 35° WNW 02:02:26 35° WNW 02:06:03 10° N
CZ-2C R/B 3.8 01:59:20 10° N 02:04:07 40° WNW 02:08:56 10° SW
Cosmos 1656 Rocket 4.4 01:59:24 10° NW 02:04:46 46° WSW 02:05:33 43° SW
Cosmos 962 Rocket 4.4 02:02:18 10° N 02:08:26 75° W 02:08:53 72° SW
APEX 4.3 02:02:07 10° NNW 02:08:10 73° W 02:08:10 73° W
SL-8 Rocket 4.0 02:06:24 10° N 02:12:05 70° NNE 02:12:05 70° NNE
Cosmos 2366 rocket 4.4 02:17:40 10° N 02:22:24 54° NNE 02:22:24 54° NNE
ATLAS 5 CENTAUR R/B 4.2 02:45:12 16° N 02:45:12 16° N 02:46:38 10° N
Terra 4.1 02:47:23 18° N 02:47:23 18° N 02:48:40 10° N
COSMOS 2455 3.7 02:40:50 10° NNW 02:45:05 47° NW 02:45:05 47° NW
NOSS 3-4 (A) 4.4 02:45:11 10° NW 02:51:45 50° WSW 02:51:45 50° WSW
NOSS 3-4 (C) 4.4 02:45:16 10° NW 02:51:50 50° WSW 02:51:50 50° WSW
CZ-4C R/B 4.5 02:59:56 10° N 03:05:25 23° NE 03:05:25 23° NE
ATLAS 2AS CENTAUR R/B 4.3 03:18:14 10° NW 03:22:54 25° W 03:22:54 25° W
CZ-4C R/B 4.4 04:47:29 10° NNW 04:50:35 29° NNW 04:50:35 29° NNW
SL-16 R/B 4.4 05:58:30 25° NNE 05:58:30 25° NNE 06:01:26 10° N
Cosmos 2219 Rocket 4.4 06:41:45 10° N 06:43:25 19° N 06:43:25 19° N
Cosmos 2227 Rocket 4.5 06:51:15 17° E 06:51:15 17° E 06:53:46 10° ENE
SJ 16-02 4.4 06:58:42 12° NNE 06:58:42 12° NNE 06:59:03 10° NNE
ADEOS II 3.2 07:28:04 10° NNE 07:31:18 39° NNE 07:31:18 39° NNE
Tsikada Rocket 4.3 07:36:21 63° N 07:36:21 63° N 07:41:40 10° N
NOSS 0 Rocket 4.2 07:30:36 10° NNW 07:36:29 63° NE 07:36:29 63° NE
Resurs 1-4 Rocket 4.1 07:34:52 10° N 07:36:38 19° NNW 07:36:38 19° NNW
SL-16 R/B 4.4 07:43:34 17° NW 07:43:34 17° NW 07:45:05 10° NNW
USA 267 3.2 07:40:18 10° NE 07:46:50 74° NW 07:46:50 74° NW
Cosmos 2237 Rocket 2.8 07:44:58 10° NNW 07:50:32 54° ENE 07:56:05 10° SE
IDEFIX/ARIANE 42P 3.7 07:47:18 10° NNE 07:52:05 37° E 07:52:58 34° ESE
CZ-2D R/B 4.1 07:51:57 10° NNW 07:53:57 18° NNW 07:53:57 18° NNW
USA 238 DEB 3.4 08:03:45 75° SSW 08:04:24 88° SE 08:11:17 10° NNE
USA 238 3.5 08:03:49 74° SSW 08:04:30 87° ESE 08:11:24 10° NE
BREEZE-M DEB 3.9 08:06:06 71° S 08:06:33 76° SE 08:21:09 10° NE
Cosmos 2297 Rocket 2.1 08:07:43 82° NNW 08:07:43 82° NNW 08:13:14 10° NNE
BREEZE-M DEB (TANK) 3.8 08:09:01 33° ENE 08:09:01 33° ENE 08:10:23 10° ENE
Cosmos 2219 3.4 08:12:51 56° NW 08:12:51 56° NW 08:18:07 10° NNE
Spot 4 Rocket 4.0 08:08:56 10° N 08:13:40 70° NNW 08:13:40 70° NNW
ARIANE 5 R/B 3.1 08:13:20 10° N 08:17:31 46° NW 08:17:31 46° NW
USA 234 4.3 08:12:57 10° ESE 08:19:04 44° NNE 08:25:12 10° NW
CZ-4B R/B 3.7 08:17:17 17° ESE 08:19:07 26° ENE 08:22:04 10° NNE
STARLINK-1011 4.4 08:23:08 48° NNE 08:23:08 48° NNE 08:26:24 10° NE
Cosmos 2279 Rocket 4.1 08:17:52 10° N 08:24:08 74° E 08:30:22 10° SSE
STARLINK-1036 4.3 08:27:55 49° N 08:27:55 49° N 08:31:22 10° NE
NOSS 3-2 (A) 3.3 08:29:30 57° W 08:30:21 64° NW 08:36:40 10° NNE
Cosmos 1782 Rocket 3.6 08:26:37 10° N 08:30:25 68° NNW 08:30:25 68° NNW
STARLINK-1044 4.2 08:32:43 47° NNW 08:32:43 47° NNW 08:36:20 10° NE
FALCON 9 DEB 4.4 08:34:27 36° ESE 08:34:27 36° ESE 08:36:41 10° ESE
Cosmos 2227 Rocket 2.2 08:33:04 55° W 08:33:38 58° WNW 08:39:14 10° NNE
STARLINK-1047 4.2 08:37:29 45° NNW 08:37:29 45° NNW 08:41:16 10° NE
STARLINK-1037 4.2 08:38:32 44° NNW 08:38:32 44° NNW 08:42:21 10° NE
Okean 1-7 4.0 08:43:32 33° NW 08:43:32 33° NW 08:46:35 10° N
CENTAUR R/B 2.4 08:40:19 40° SSW 08:42:36 81° ESE 08:49:18 10° NE
STARLINK-1056 4.4 08:43:14 39° SSE 08:43:56 42° SE 08:47:51 10° ENE
STARLINK-1059 4.4 08:47:06 38° NW 08:47:19 39° NW 08:51:13 10° NE
H-2A R/B 4.4 08:51:35 11° NW 08:51:35 11° NW 08:51:49 10° NW
STARLINK-1054 4.3 08:48:01 40° S 08:48:53 47° SE 08:52:52 10° ENE
Gblst 52 Del rocket 4.4 08:48:15 34° W 08:50:24 50° SW 08:55:48 10° SSE
Cosmos 2180 Rocket 4.4 08:44:27 10° N 08:50:42 86° W 08:56:59 10° S
STARLINK-1057 4.5 08:51:51 35° NW 08:52:17 36° NNW 08:56:08 10° NE
Cosmos 1980 4.0 08:47:13 10° NW 08:52:30 42° WSW 08:53:08 40° WSW
STARLINK-1062 4.1 08:52:48 40° S 08:53:50 53° SE 08:57:53 10° ENE
OE (NEXTSAT) 4.3 08:56:21 70° S 08:56:21 70° S 08:59:39 10° SE
Cosmos 1975 2.8 08:52:34 10° NNW 08:56:31 54° W 08:56:32 54° W
CZ-2C R/B 2.9 08:53:25 10° NNE 08:57:54 52° E 09:02:21 10° S
STARLINK-1053 3.9 08:57:36 40° SSW 08:58:50 59° SE 09:02:55 10° NE
NOSS 3-2 (C) 3.4 08:57:53 36° WSW 09:00:13 63° NW 09:06:33 10° NNE
STARLINK-1061 3.8 09:02:22 38° SSW 09:03:46 65° SE 09:07:53 10° NE
Cosmos 494 Rocket 4.1 09:01:43 10° NNW 09:07:01 81° ENE 09:12:17 10° SSE
deb Chang Zheng 4 4.0 09:03:11 10° N 09:07:14 40° WNW 09:08:06 36° W
STARLINK-1067 3.7 09:07:10 36° SSW 09:08:45 73° SE 09:12:53 10° NE
Cosmos 2082 4.0 09:06:31 31° WSW 09:08:59 51° WNW 09:14:34 10° NNE
SL-16 R/B 2.2 09:03:34 10° NNW 09:09:16 87° ENE 09:14:56 10° SSE
SeaSat 1 3.4 09:04:53 10° SE 09:09:38 50° ENE 09:14:24 10° NNW
Cosmos 2221 Rocket 3.7 09:08:08 32° SW 09:09:54 54° W 09:14:16 10° N
ADEOS II 4.1 09:10:39 10° NW 09:12:15 11° WNW 09:12:15 11° WNW
STARLINK-1058 3.6 09:11:56 33° SW 09:13:42 80° SE 09:17:52 10° NE
STARLINK-1043 3.5 09:16:42 30° SW 09:18:40 88° SE 09:22:49 10° NE
Meteor 1-4 Rocket 2.5 09:16:11 15° S 09:19:13 88° W 09:23:00 10° N
BREEZE-M DEB (TANK) 2.8 09:15:24 10° WNW 09:19:47 56° SW 09:24:00 10° SE
STARLINK-1065 3.5 09:17:47 30° SW 09:19:47 90° WSW 09:23:56 10° NE
CZ-2C R/B 4.5 09:17:44 10° NNW 09:20:29 19° WNW 09:20:29 19° WNW
Sich 1 Rocket 4.3 09:18:27 10° NNW 09:22:21 32° W 09:24:08 23° SW
Cosmos 1048 Rocket 4.4 09:17:57 10° NNW 09:22:56 41° WSW 09:27:56 10° S
STARLINK-52 3.5 09:24:22 34° WSW 09:24:37 34° SW 09:27:34 10° SSE
Okean 2 Rocket 3.2 09:21:15 10° NNW 09:25:37 51° W 09:30:00 10° S
Cosmos 2151 Rocket 3.4 09:22:05 10° N 09:26:28 77° W 09:30:51 10° S
Cosmos 1300 Rocket 3.5 09:24:11 10° NNW 09:28:26 58° W 09:32:39 10° S
Cosmos 1125 Rocket 4.5 09:26:12 22° WSW 09:28:29 29° WNW 09:33:07 10° N
STARLINK-1063 3.6 09:26:15 25° WSW 09:28:37 76° NW 09:32:46 10° NE
Meteor 1-31 Rocket 3.5 09:25:08 10° NNE 09:29:01 54° E 09:32:51 10° S
PSLV R/B 4.5 09:25:26 10° SSE 09:29:35 64° ENE 09:33:45 10° N
IDEFIX/ARIANE 42P 3.7 09:27:16 10° NNW 09:31:27 25° WNW 09:33:48 18° WSW
MSX 4.3 09:27:56 10° N 09:33:15 40° WNW 09:37:58 13° SW
Okean 3 4.4 09:31:55 22° WSW 09:33:34 28° WNW 09:37:11 10° NNW
STARLINK-1064 3.6 09:31:03 22° WSW 09:33:36 69° NW 09:37:45 10° NE
CZ-4B R/B 4.2 09:29:54 10° NNE 09:33:48 61° E 09:37:30 10° S
Cosmos 2237 Rocket 3.4 09:30:12 10° NW 09:34:06 19° W 09:37:22 12° SW
Cosmos 389 Rocket 3.8 09:33:55 21° W 09:34:27 21° WNW 09:37:14 10° NNW
ATLAS 3B R/B 2.6 09:31:05 12° SW 09:37:22 77° WNW 09:44:02 10° NNE
STARLINK-1041 3.7 09:35:51 20° WSW 09:38:36 63° NW 09:42:43 10° NE
Cosmos 1378 Rocket 3.4 09:38:14 10° S 09:42:33 80° W 09:46:56 10° N
STARLINK-1038 3.8 09:40:37 18° WSW 09:43:35 57° NW 09:47:40 10° NE
Cosmos 2263 Rocket 2.5 09:41:50 10° SSW 09:47:26 72° ESE 09:53:07 10° NNE
STARLINK-1046 4.0 09:45:25 16° WSW 09:48:35 52° NW 09:52:38 10° NE
Cosmos 1092 Rocket 4.0 09:42:49 10° SSW 09:49:05 65° W 09:55:23 10° N
Cosmos 1689 Rocket 3.0 09:47:35 10° SSW 09:50:13 27° W 09:52:51 10° NW
ATLAS 5 CENTAUR R/B 3.2 09:45:23 10° NNW 09:51:11 56° NE 09:57:48 10° SE
CZ-4B R/B 3.1 09:50:29 14° WSW 09:51:25 16° W 09:53:36 10° NW
Cosmos 2297 Rocket 4.1 09:49:55 10° WNW 09:52:26 13° NW 09:54:58 10° NNW
STARLINK-1039 4.1 09:50:10 14° WSW 09:53:33 48° NW 09:57:34 10° NE
ADEOS 4.2 09:50:56 10° N 09:55:41 36° WNW 10:00:24 10° SW
CZ-4B R/B 3.1 09:52:06 10° NNE 09:56:27 89° ESE 10:00:54 10° SSW
STARLINK-1045 4.2 09:54:57 12° WSW 09:58:32 44° NW 10:02:31 10° NE
USA 234 3.4 09:55:35 10° SSE 10:01:57 55° SW 10:08:21 10° NW
STARLINK-1050 4.4 09:59:48 11° WSW 10:03:35 40° NW 10:07:31 10° NE
Cosmos 2026 Rocket 3.9 09:57:37 10° SSW 10:03:43 68° W 10:09:46 10° N
Meteor PRIRODA 3.6 10:02:32 10° NNE 10:06:12 88° ESE 10:09:52 10° SSW
Meteor 2-13 Rocket 4.5 10:00:10 10° S 10:06:13 89° E 10:12:18 10° N
STARLINK-1055 4.5 10:04:45 10° WSW 10:08:36 37° NNW 10:12:28 10° NE
Cosmos 2227 4.4 10:09:53 10° SW 10:15:23 54° WNW 10:20:54 10° NNE
Centaur D-1A AC-31 4.5 10:39:37 10° WSW 11:35:27 48° S 11:42:03 10° ESE
